Location: Caltech
(34.1382°N, 118.1253°W)
Time: 08:55:24
(UTC-07:00)

A-11 Canister half - All Passes

Search period start: 01 August 2014 00:00
Search period end: 11 August 2014 00:00
Orbit: 1517 x 1683 km, 47.2° (Epoch: 31 July)

Date Brightness Start Highest point End Pass type
(mag) Time Alt. Az. Time Alt. Az. Time Alt. Az.
01 Aug - 00:47:55 10° WNW 00:57:16 46° SW 01:06:20 10° SSE visible
01 Aug - 13:59:43 10° SSE 14:06:05 19° ESE 14:12:32 10° E daylight
01 Aug - 16:00:00 10° SW 16:09:52 74° SE 16:20:00 10° ENE daylight
01 Aug - 18:05:50 10° W 18:15:32 50° NNW 18:25:20 10° NE daylight
01 Aug - 20:13:22 10° WNW 20:22:43 39° N 20:31:59 10° ENE visible
01 Aug - 22:19:25 10° NW 22:29:30 64° NNE 22:39:20 10° ESE visible
02 Aug - 00:24:55 10° WNW 00:34:25 49° SW 00:43:39 10° SSE visible
02 Aug - 13:37:27 10° SSE 13:43:17 18° ESE 13:49:12 10° E daylight
02 Aug - 15:37:12 10° SW 15:46:59 70° SE 15:57:03 10° ENE daylight
02 Aug - 17:42:49 10° W 17:52:32 51° NNW 18:02:24 10° NE daylight
02 Aug - 19:50:21 10° WNW 19:59:41 39° N 20:08:57 10° ENE daylight
02 Aug - 21:56:29 10° NW 22:06:33 61° NNE 22:16:22 10° ESE visible
03 Aug - 00:01:56 10° WNW 00:11:35 52° SW 00:20:56 10° SSE visible
03 Aug - 13:15:17 10° SSE 13:20:30 16° ESE 13:25:46 10° E daylight
03 Aug - 15:14:24 10° SW 15:24:07 66° SE 15:34:06 10° ENE daylight
03 Aug - 17:19:48 10° W 17:29:33 53° NNW 17:39:27 10° NE daylight
03 Aug - 19:27:20 10° WNW 19:36:38 39° N 19:45:56 10° ENE daylight
03 Aug - 21:33:33 10° NW 21:43:35 59° NNE 21:53:23 10° ESE visible
03 Aug - 23:38:58 10° WNW 23:48:43 56° SW 23:58:12 10° SSE visible
04 Aug - 01:49:18 10° WSW 01:52:09 12° WSW 01:54:58 10° SW visible
04 Aug - 12:53:14 10° SSE 12:57:43 14° ESE 13:02:13 10° E daylight
04 Aug - 14:51:38 10° SSW 15:01:15 62° SE 15:11:09 10° ENE daylight
04 Aug - 16:56:48 10° W 17:06:34 55° NNW 17:16:31 10° NE daylight
04 Aug - 19:04:19 10° WNW 19:13:36 39° N 19:22:54 10° ENE daylight
04 Aug - 21:10:37 10° NW 21:20:36 56° NNE 21:30:24 10° ESE visible
04 Aug - 23:16:00 10° WNW 23:25:52 60° SW 23:35:28 10° SSE visible
05 Aug - 01:25:20 10° W 01:29:22 13° WSW 01:33:21 10° SW visible
05 Aug - 12:31:26 10° SE 12:34:56 12° ESE 12:38:27 10° E daylight
05 Aug - 14:28:52 10° SSW 14:38:23 58° SE 14:48:11 10° ENE daylight
05 Aug - 16:33:49 10° WSW 16:43:35 57° NNW 16:53:35 10° NE daylight
05 Aug - 18:41:17 10° WNW 18:50:34 39° N 18:59:52 10° ENE daylight
05 Aug - 20:47:41 10° NW 20:57:38 54° NNE 21:07:24 10° E visible
05 Aug - 22:53:02 10° WNW 23:03:00 64° SW 23:12:41 10° SE visible
06 Aug - 01:01:41 10° W 01:06:35 15° WSW 01:11:25 10° SSW visible
06 Aug - 12:10:08 10° SE 12:12:09 11° ESE 12:14:11 10° ESE daylight
06 Aug - 14:06:08 10° SSW 14:15:32 55° SE 14:25:13 10° ENE daylight
06 Aug - 16:10:50 10° WSW 16:20:37 60° NNW 16:30:39 10° NE daylight
06 Aug - 18:18:15 10° WNW 18:27:31 39° N 18:36:51 10° ENE daylight
06 Aug - 20:24:45 10° NW 20:34:38 53° NNE 20:44:24 10° E visible
06 Aug - 22:30:05 10° WNW 22:40:07 68° SW 22:49:54 10° SE visible
07 Aug - 00:38:12 10° W 00:43:47 17° WSW 00:49:19 10° SSW visible
07 Aug - 13:43:25 10° SSW 13:52:41 51° SE 14:02:14 10° ENE daylight
07 Aug - 15:47:52 10° WSW 15:57:39 62° NNW 16:07:43 10° NE daylight
07 Aug - 17:55:14 10° WNW 18:04:29 39° N 18:13:49 10° ENE daylight
07 Aug - 20:01:49 10° NW 20:11:39 51° NNE 20:21:23 10° E visible
07 Aug - 22:07:09 10° WNW 22:17:14 72° SW 22:27:06 10° SE visible
08 Aug - 00:14:49 10° W 00:21:00 18° WSW 00:27:06 10° SSW visible
08 Aug - 13:20:43 10° SSW 13:29:50 48° SE 13:39:15 10° ENE daylight
08 Aug - 15:24:54 10° WSW 15:34:42 65° NNW 15:44:47 10° NE daylight
08 Aug - 17:32:12 10° WNW 17:41:27 39° N 17:50:48 10° ENE daylight
08 Aug - 19:38:52 10° NW 19:48:39 49° NNE 19:58:21 10° E daylight
08 Aug - 21:44:12 10° NW 21:54:21 76° SW 22:04:17 10° SE visible
08 Aug - 23:51:31 10° W 23:58:12 20° WSW 00:04:48 10° SSW visible
09 Aug - 12:58:02 10° SSW 13:07:00 44° SE 13:16:15 10° ENE daylight
09 Aug - 15:01:58 10° WSW 15:11:45 67° NNW 15:21:51 10° NE daylight
09 Aug - 17:09:10 10° WNW 17:18:25 40° N 17:27:47 10° ENE daylight
09 Aug - 19:15:56 10° NW 19:25:39 48° NNE 19:35:19 10° E daylight
09 Aug - 21:21:17 10° NW 21:31:28 80° SW 21:41:27 10° SE visible
09 Aug - 23:28:17 10° WNW 23:35:24 22° SW 23:42:26 10° S visible
10 Aug - 12:35:23 10° SSW 12:44:10 41° SE 12:53:14 10° ENE daylight
10 Aug - 14:39:02 10° WSW 14:48:49 70° NNW 14:58:56 10° NE daylight
10 Aug - 16:46:08 10° WNW 16:55:23 40° N 17:04:47 10° ENE daylight
10 Aug - 18:52:59 10° NW 19:02:39 46° NNE 19:12:17 10° E daylight
10 Aug - 20:58:21 10° NW 21:08:33 84° SW 21:18:35 10° SE visible
10 Aug - 23:05:05 10° WNW 23:12:35 24° SW 23:20:00 10° S visible
